Time,TemperatureF,DewpointF,PressureIn,WindDirection,WindDirectionDegrees,WindSpeedMPH,WindSpeedGustMPH,Humidity,HourlyPrecipIn,Conditions,Clouds,dailyrainin,SoftwareType,DateUTC
2013-05-16 00:00:00,67.3,39.3,29.79,WNW,288,0.0,0.0,36,0.00,,,0.00,VWS V14.01,2013-05-16 04:00:00,
2013-05-16 00:01:00,67.3,39.3,29.79,WNW,288,0.0,0.0,36,0.00,,,0.00,VWS V14.01,2013-05-16 04:01:00,
2013-05-16 00:02:00,67.3,39.3,29.78,WNW,288,0.0,0.0,36,0.00,,,0.00,VWS V14.01,2013-05-16 04:02:00,
2013-05-16 00:03:00,67.2,39.2,29.78,WNW,288,0.0,0.0,36,0.00,,,0.00,VWS V14.01,2013-05-16 04:03:00,
2013-05-16 00:06:00,67.0,39.0,29.79,WNW,288,0.0,0.0,36,0.00,,,0.00,VWS V14.01,2013-05-16 04:06:00,
2013-05-16 00:10:00,66.8,38.9,29.78,WNW,288,0.0,0.0,36,0.00,,,0.00,VWS V14.01,2013-05-16 04:10:00,
2013-05-16 00:16:00,66.6,38.7,29.79,WNW,288,0.0,0.0,36,0.00,,,0.00,VWS V14.01,2013-05-16 04:16:00,
2013-05-16 00:20:00,66.4,38.5,29.79,WNW,288,0.0,0.0,36,0.00,,,0.00,VWS V14.01,2013-05-16 04:20:00,
2013-05-16 00:21:00,66.4,38.5,29.79,WNW,288,0.0,0.0,36,0.00,,,0.00,VWS V14.01,2013-05-16 04:21:00,
2013-05-16 00:26:00,66.1,38.2,29.79,WNW,288,0.0,0.0,36,0.00,,,0.00,VWS V14.01,2013-05-16 04:26:00,
2013-05-16 00:30:00,65.9,38.0,29.78,WNW,288,0.0,0.0,36,0.00,,,0.00,VWS V14.01,2013-05-16 04:30:00,
2013-05-16 00:31:00,65.9,38.0,29.78,WNW,288,0.0,0.0,36,0.00,,,0.00,VWS V14.01,2013-05-16 04:31:00,
2013-05-16 00:36:00,65.7,38.7,29.78,WNW,288,0.0,0.0,37,0.00,,,0.00,VWS V14.01,2013-05-16 04:36:00,
2013-05-16 00:40:00,65.5,38.5,29.78,WNW,288,0.0,0.0,37,0.00,,,0.00,VWS V14.01,2013-05-16 04:40:00,
2013-05-16 00:41:00,65.4,38.4,29.78,WNW,288,0.0,0.0,37,0.00,,,0.00,VWS V14.01,2013-05-16 04:41:00,
2013-05-16 00:46:00,65.2,38.3,29.78,WNW,288,0.0,0.0,37,0.00,,,0.00,VWS V14.01,2013-05-16 04:46:00,
2013-05-16 00:50:00,64.9,38.1,29.79,WNW,288,0.0,0.0,37,0.00,,,0.00,VWS V14.01,2013-05-16 04:50:00,
2013-05-16 00:51:00,64.9,38.1,29.78,WNW,288,0.0,0.0,37,0.00,,,0.00,VWS V14.01,2013-05-16 04:51:00,
2013-05-16 00:56:00,64.5,37.7,29.79,WNW,288,0.0,0.0,37,0.00,,,0.00,VWS V14.01,2013-05-16 04:56:00,
2013-05-16 01:00:00,64.5,38.5,29.79,WNW,288,0.0,0.0,38,0.00,,,0.00,VWS V14.01,2013-05-16 05:00:00,
2013-05-16 01:01:00,64.5,38.5,29.79,WNW,288,0.0,0.0,38,0.00,,,0.00,VWS V14.01,2013-05-16 05:01:00,
2013-05-16 01:06:00,64.2,38.3,29.78,WNW,288,0.0,0.0,38,0.00,,,0.00,VWS V14.01,2013-05-16 05:06:00,
2013-05-16 01:10:00,64.0,38.9,29.79,WNW,288,0.0,0.0,39,0.00,,,0.00,VWS V14.01,2013-05-16 05:10:00,
2013-05-16 01:11:00,63.8,38.7,29.79,WNW,288,0.0,0.0,39,0.00,,,0.00,VWS V14.01,2013-05-16 05:11:00,
2013-05-16 01:16:00,63.5,39.2,29.79,WNW,288,0.0,0.0,41,0.00,,,0.00,VWS V14.01,2013-05-16 05:16:00,
2013-05-16 01:20:00,63.1,38.8,29.79,WNW,288,0.0,0.0,41,0.00,,,0.00,VWS V14.01,2013-05-16 05:20:00,
2013-05-16 01:21:00,63.1,38.8,29.79,WNW,288,0.0,0.0,41,0.00,,,0.00,VWS V14.01,2013-05-16 05:21:00,
2013-05-16 01:26:00,62.5,38.4,29.79,WNW,288,0.0,0.0,41,0.00,,,0.00,VWS V14.01,2013-05-16 05:26:00,
2013-05-16 01:30:00,62.3,39.0,29.79,WNW,288,0.0,0.0,42,0.00,,,0.00,VWS V14.01,2013-05-16 05:30:00,
2013-05-16 01:31:00,62.1,38.8,29.79,WNW,288,0.0,0.0,42,0.00,,,0.00,VWS V14.01,2013-05-16 05:31:00,
2013-05-16 01:36:00,61.7,38.4,29.80,WNW,288,0.0,0.0,42,0.00,,,0.00,VWS V14.01,2013-05-16 05:36:00,
2013-05-16 01:40:00,61.6,38.3,29.79,WNW,288,0.0,0.0,42,0.00,,,0.00,VWS V14.01,2013-05-16 05:40:00,
2013-05-16 01:41:00,61.4,38.8,29.79,WNW,288,0.0,0.0,43,0.00,,,0.00,VWS V14.01,2013-05-16 05:41:00,
2013-05-16 01:46:00,61.2,38.7,29.79,WNW,288,0.0,0.0,43,0.00,,,0.00,VWS V14.01,2013-05-16 05:46:00,
2013-05-16 01:50:00,60.8,39.0,29.79,WNW,288,0.0,0.0,44,0.00,,,0.00,VWS V14.01,2013-05-16 05:50:00,
2013-05-16 01:51:00,60.8,39.0,29.79,WNW,288,0.0,0.0,44,0.00,,,0.00,VWS V14.01,2013-05-16 05:51:00,
2013-05-16 01:56:00,60.5,39.4,29.79,WNW,288,0.0,0.0,46,0.00,,,0.00,VWS V14.01,2013-05-16 05:56:00,
2013-05-16 02:00:00,60.3,39.2,29.79,WNW,288,0.0,0.0,46,0.00,,,0.00,VWS V14.01,2013-05-16 06:00:00,
2013-05-16 02:01:00,60.3,39.2,29.79,WNW,288,0.0,0.0,46,0.00,,,0.00,VWS V14.01,2013-05-16 06:01:00,
2013-05-16 02:06:00,60.3,39.2,29.79,WNW,288,0.0,0.0,46,0.00,,,0.00,VWS V14.01,2013-05-16 06:06:00,
2013-05-16 02:10:00,64.0,38.9,29.79,WNW,288,0.0,0.0,39,0.00,,,0.00,VWS V14.01,2013-05-16 06:10:00,
2013-05-16 02:12:00,59.3,39.7,29.79,WNW,288,0.0,0.0,48,0.00,,,0.00,VWS V14.01,2013-05-16 06:12:00,
2013-05-16 02:17:00,58.9,39.4,29.79,WNW,288,0.0,0.0,48,0.00,,,0.00,VWS V14.01,2013-05-16 06:17:00,
2013-05-16 02:20:00,58.6,39.1,29.79,WNW,288,0.0,0.0,48,0.00,,,0.00,VWS V14.01,2013-05-16 06:20:00,
2013-05-16 02:22:00,58.6,39.1,29.79,WNW,288,0.0,0.0,48,0.00,,,0.00,VWS V14.01,2013-05-16 06:22:00,
2013-05-16 02:27:00,58.6,39.7,29.79,WNW,288,0.0,0.0,49,0.00,,,0.00,VWS V14.01,2013-05-16 06:27:00,
2013-05-16 02:30:00,58.6,39.7,29.79,WNW,288,0.0,0.0,49,0.00,,,0.00,VWS V14.01,2013-05-16 06:30:00,
2013-05-16 02:32:00,58.4,39.5,29.79,WNW,288,0.0,0.0,49,0.00,,,0.00,VWS V14.01,2013-05-16 06:32:00,
2013-05-16 02:37:00,58.0,39.2,29.79,WNW,288,0.0,0.0,49,0.00,,,0.00,VWS V14.01,2013-05-16 06:37:00,
2013-05-16 02:40:00,57.9,39.7,29.79,WNW,288,0.0,0.0,51,0.00,,,0.00,VWS V14.01,2013-05-16 06:40:00,
2013-05-16 02:42:00,57.7,39.5,29.79,WNW,288,0.0,0.0,51,0.00,,,0.00,VWS V14.01,2013-05-16 06:42:00,
2013-05-16 02:47:00,57.5,39.9,29.79,WNW,288,0.0,0.0,52,0.00,,,0.00,VWS V14.01,2013-05-16 06:47:00,
2013-05-16 02:50:00,57.2,39.7,29.79,WNW,288,0.0,0.0,52,0.00,,,0.00,VWS V14.01,2013-05-16 06:50:00,
2013-05-16 02:52:00,57.2,39.7,29.79,WNW,288,0.0,0.0,52,0.00,,,0.00,VWS V14.01,2013-05-16 06:52:00,
2013-05-16 02:57:00,57.0,39.5,29.79,WNW,288,0.0,0.0,52,0.00,,,0.00,VWS V14.01,2013-05-16 06:57:00,
2013-05-16 03:00:00,56.7,39.9,29.79,WNW,288,0.0,0.0,53,0.00,,,0.00,VWS V14.01,2013-05-16 07:00:00,
2013-05-16 03:02:00,56.7,39.9,29.79,WNW,288,0.0,0.0,53,0.00,,,0.00,VWS V14.01,2013-05-16 07:02:00,
2013-05-16 03:07:00,56.7,39.9,29.79,WNW,288,0.0,0.0,53,0.00,,,0.00,VWS V14.01,2013-05-16 07:07:00,
2013-05-16 03:10:00,56.5,39.7,29.80,WNW,288,0.0,0.0,53,0.00,,,0.00,VWS V14.01,2013-05-16 07:10:00,
2013-05-16 03:12:00,56.5,39.7,29.80,WNW,288,0.0,0.0,53,0.00,,,0.00,VWS V14.01,2013-05-16 07:12:00,
2013-05-16 03:17:00,56.1,39.9,29.80,WNW,288,0.0,0.0,54,0.00,,,0.00,VWS V14.01,2013-05-16 07:17:00,
2013-05-16 03:20:00,56.1,39.9,29.80,WNW,288,0.0,0.0,54,0.00,,,0.00,VWS V14.01,2013-05-16 07:20:00,
2013-05-16 03:22:00,56.1,39.9,29.80,WNW,288,0.0,0.0,54,0.00,,,0.00,VWS V14.01,2013-05-16 07:22:00,
2013-05-16 03:27:00,56.0,39.8,29.80,WNW,288,0.0,0.0,54,0.00,,,0.00,VWS V14.01,2013-05-16 07:27:00,
2013-05-16 03:30:00,55.8,40.2,29.80,WNW,288,0.0,0.0,56,0.00,,,0.00,VWS V14.01,2013-05-16 07:30:00,
2013-05-16 03:32:00,55.8,40.2,29.80,WNW,288,0.0,0.0,56,0.00,,,0.00,VWS V14.01,2013-05-16 07:32:00,
2013-05-16 03:37:00,55.6,40.5,29.80,WNW,288,0.0,0.0,57,0.00,,,0.00,VWS V14.01,2013-05-16 07:37:00,
2013-05-16 03:40:00,55.6,40.5,29.80,WNW,288,0.0,0.0,57,0.00,,,0.00,VWS V14.01,2013-05-16 07:40:00,
2013-05-16 03:42:00,55.6,40.5,29.80,WNW,288,0.0,0.0,57,0.00,,,0.00,VWS V14.01,2013-05-16 07:42:00,
2013-05-16 03:47:00,55.4,40.3,29.81,WNW,288,0.0,0.0,57,0.00,,,0.00,VWS V14.01,2013-05-16 07:47:00,
2013-05-16 03:50:00,55.2,40.2,29.80,WNW,288,0.0,0.0,57,0.00,,,0.00,VWS V14.01,2013-05-16 07:50:00,
2013-05-16 03:52:00,55.2,40.2,29.80,WNW,288,0.0,0.0,57,0.00,,,0.00,VWS V14.01,2013-05-16 07:52:00,
2013-05-16 03:57:00,55.2,40.2,29.80,WNW,288,0.0,0.0,57,0.00,,,0.00,VWS V14.01,2013-05-16 07:57:00,
2013-05-16 04:00:00,55.2,40.2,29.80,WNW,288,0.0,0.0,57,0.00,,,0.00,VWS V14.01,2013-05-16 08:00:00,
2013-05-16 04:02:00,55.2,40.2,29.80,WNW,288,0.0,0.0,57,0.00,,,0.00,VWS V14.01,2013-05-16 08:02:00,
2013-05-16 04:07:00,55.1,40.0,29.81,WNW,288,0.0,0.0,57,0.00,,,0.00,VWS V14.01,2013-05-16 08:07:00,
2013-05-16 04:10:00,54.9,39.9,29.81,WNW,288,0.0,0.0,57,0.00,,,0.00,VWS V14.01,2013-05-16 08:10:00,
2013-05-16 04:12:00,54.9,39.9,29.81,WNW,288,0.0,0.0,57,0.00,,,0.00,VWS V14.01,2013-05-16 08:12:00,
2013-05-16 04:17:00,54.9,39.9,29.81,WNW,288,0.0,0.0,57,0.00,,,0.00,VWS V14.01,2013-05-16 08:17:00,
2013-05-16 04:20:00,54.9,39.9,29.81,WNW,288,0.0,0.0,57,0.00,,,0.00,VWS V14.01,2013-05-16 08:20:00,
2013-05-16 04:22:00,54.9,39.9,29.81,WNW,288,0.0,0.0,57,0.00,,,0.00,VWS V14.01,2013-05-16 08:22:00,
2013-05-16 04:28:00,54.9,39.9,29.82,WNW,288,0.0,0.0,57,0.00,,,0.00,VWS V14.01,2013-05-16 08:28:00,
2013-05-16 04:30:00,54.7,39.7,29.82,WNW,288,0.0,0.0,57,0.00,,,0.00,VWS V14.01,2013-05-16 08:30:00,
2013-05-16 04:33:00,54.7,39.7,29.82,WNW,288,0.0,0.0,57,0.00,,,0.00,VWS V14.01,2013-05-16 08:33:00,
2013-05-16 04:38:00,54.7,40.2,29.81,WNW,288,0.0,0.0,58,0.00,,,0.00,VWS V14.01,2013-05-16 08:38:00,
2013-05-16 04:40:00,54.7,40.2,29.81,WNW,288,0.0,0.0,58,0.00,,,0.00,VWS V14.01,2013-05-16 08:40:00,
2013-05-16 04:43:00,54.4,40.0,29.82,WNW,288,0.0,0.0,58,0.00,,,0.00,VWS V14.01,2013-05-16 08:43:00,
2013-05-16 04:48:00,54.4,40.6,29.82,WNW,288,0.0,0.0,59,0.00,,,0.00,VWS V14.01,2013-05-16 08:48:00,
2013-05-16 04:50:00,54.2,40.4,29.82,WNW,288,0.0,0.0,59,0.00,,,0.00,VWS V14.01,2013-05-16 08:50:00,
2013-05-16 04:53:00,54.2,40.4,29.82,WNW,288,0.0,0.0,59,0.00,,,0.00,VWS V14.01,2013-05-16 08:53:00,
2013-05-16 04:58:00,54.2,40.4,29.82,WNW,288,0.0,0.0,59,0.00,,,0.00,VWS V14.01,2013-05-16 08:58:00,
2013-05-16 05:00:00,54.2,40.4,29.82,WNW,288,0.0,0.0,59,0.00,,,0.00,VWS V14.01,2013-05-16 09:00:00,
2013-05-16 05:03:00,54.2,40.4,29.82,WNW,288,0.0,0.0,59,0.00,,,0.00,VWS V14.01,2013-05-16 09:03:00,
2013-05-16 05:08:00,54.2,40.9,29.82,WNW,288,0.0,0.0,61,0.00,,,0.00,VWS V14.01,2013-05-16 09:08:00,
2013-05-16 05:10:00,54.2,40.9,29.82,WNW,288,0.0,0.0,61,0.00,,,0.00,VWS V14.01,2013-05-16 09:10:00,
2013-05-16 05:13:00,54.2,40.9,29.82,WNW,288,0.0,0.0,61,0.00,,,0.00,VWS V14.01,2013-05-16 09:13:00,
2013-05-16 05:18:00,54.1,40.8,29.82,WNW,288,0.0,0.0,61,0.00,,,0.00,VWS V14.01,2013-05-16 09:18:00,
2013-05-16 05:20:00,54.1,40.8,29.82,WNW,288,0.0,0.0,61,0.00,,,0.00,VWS V14.01,2013-05-16 09:20:00,
2013-05-16 05:23:00,54.1,40.8,29.82,WNW,288,0.0,0.0,61,0.00,,,0.00,VWS V14.01,2013-05-16 09:23:00,
2013-05-16 05:28:00,54.1,40.8,29.82,WNW,288,0.0,0.0,61,0.00,,,0.00,VWS V14.01,2013-05-16 09:28:00,
2013-05-16 05:30:00,54.1,40.8,29.82,WNW,288,0.0,0.0,61,0.00,,,0.00,VWS V14.01,2013-05-16 09:30:00,
2013-05-16 05:33:00,54.1,40.8,29.83,WNW,288,0.0,0.0,61,0.00,,,0.00,VWS V14.01,2013-05-16 09:33:00,
2013-05-16 05:38:00,53.9,40.6,29.83,WNW,288,0.0,0.0,61,0.00,,,0.00,VWS V14.01,2013-05-16 09:38:00,
2013-05-16 05:40:00,54.1,40.8,29.83,WNW,288,0.0,0.0,61,0.00,,,0.00,VWS V14.01,2013-05-16 09:40:00,
2013-05-16 05:43:00,54.1,40.8,29.83,WNW,288,0.0,0.0,61,0.00,,,0.00,VWS V14.01,2013-05-16 09:43:00,
2013-05-16 05:48:00,54.1,41.3,29.83,WNW,288,0.0,0.0,62,0.00,,,0.00,VWS V14.01,2013-05-16 09:48:00,
2013-05-16 05:50:00,54.1,41.3,29.83,WNW,288,0.0,0.0,62,0.00,,,0.00,VWS V14.01,2013-05-16 09:50:00,
2013-05-16 05:53:00,54.1,41.3,29.83,WNW,288,0.0,0.0,62,0.00,,,0.00,VWS V14.01,2013-05-16 09:53:00,
2013-05-16 05:58:00,54.1,41.3,29.83,WNW,288,0.0,0.0,62,0.00,,,0.00,VWS V14.01,2013-05-16 09:58:00,
2013-05-16 06:00:00,54.1,41.3,29.84,WNW,288,0.0,0.0,62,0.00,,,0.00,VWS V14.01,2013-05-16 10:00:00,
2013-05-16 06:03:00,54.1,41.3,29.84,WNW,288,0.0,0.0,62,0.00,,,0.00,VWS V14.01,2013-05-16 10:03:00,
2013-05-16 06:08:00,54.1,41.3,29.83,WNW,288,0.0,0.0,62,0.00,,,0.00,VWS V14.01,2013-05-16 10:08:00,
2013-05-16 06:10:00,54.1,41.3,29.83,WNW,288,0.0,0.0,62,0.00,,,0.00,VWS V14.01,2013-05-16 10:10:00,
2013-05-16 06:13:00,54.1,41.3,29.84,WNW,288,0.0,0.0,62,0.00,,,0.00,VWS V14.01,2013-05-16 10:13:00,
2013-05-16 06:18:00,54.2,41.4,29.84,WNW,288,0.0,0.0,62,0.00,,,0.00,VWS V14.01,2013-05-16 10:18:00,
2013-05-16 06:20:00,54.2,41.4,29.84,WNW,288,0.0,0.0,62,0.00,,,0.00,VWS V14.01,2013-05-16 10:20:00,
2013-05-16 06:23:00,54.2,41.4,29.84,WNW,288,0.0,0.0,62,0.00,,,0.00,VWS V14.01,2013-05-16 10:23:00,
2013-05-16 06:28:00,54.2,41.4,29.84,WNW,288,0.0,0.0,62,0.00,,,0.00,VWS V14.01,2013-05-16 10:28:00,
2013-05-16 06:30:00,54.2,41.4,29.84,WNW,288,0.0,0.0,62,0.00,,,0.00,VWS V14.01,2013-05-16 10:30:00,
2013-05-16 06:33:00,54.2,41.4,29.84,WNW,288,0.0,0.0,62,0.00,,,0.00,VWS V14.01,2013-05-16 10:33:00,
2013-05-16 06:38:00,54.2,41.4,29.84,WNW,288,0.0,0.0,62,0.00,,,0.00,VWS V14.01,2013-05-16 10:38:00,
2013-05-16 06:40:00,54.2,41.4,29.84,WNW,288,0.0,0.0,62,0.00,,,0.00,VWS V14.01,2013-05-16 10:40:00,
2013-05-16 06:43:00,54.2,41.4,29.84,WNW,288,0.0,0.0,62,0.00,,,0.00,VWS V14.01,2013-05-16 10:43:00,
2013-05-16 06:48:00,54.7,42.3,29.84,WNW,288,0.0,0.0,63,0.00,,,0.00,VWS V14.01,2013-05-16 10:48:00,
2013-05-16 06:50:00,54.9,42.5,29.84,WNW,288,0.0,0.0,63,0.00,,,0.00,VWS V14.01,2013-05-16 10:50:00,
2013-05-16 06:53:00,55.2,43.3,29.84,WNW,288,0.0,0.0,64,0.00,,,0.00,VWS V14.01,2013-05-16 10:53:00,
2013-05-16 06:58:00,55.8,43.4,29.84,WNW,288,0.0,0.0,63,0.00,,,0.00,VWS V14.01,2013-05-16 10:58:00,
2013-05-16 07:00:00,56.0,43.6,29.85,WNW,288,0.0,0.0,63,0.00,,,0.00,VWS V14.01,2013-05-16 11:00:00,
2013-05-16 07:03:00,56.0,43.1,29.84,WNW,288,0.0,0.0,62,0.00,,,0.00,VWS V14.01,2013-05-16 11:03:00,
2013-05-16 07:08:00,56.1,43.2,29.85,WNW,288,0.0,0.0,62,0.00,,,0.00,VWS V14.01,2013-05-16 11:08:00,
2013-05-16 07:10:00,56.1,43.2,29.85,WNW,288,0.0,0.0,62,0.00,,,0.00,VWS V14.01,2013-05-16 11:10:00,
2013-05-16 07:14:00,56.1,43.2,29.85,WNW,288,0.0,0.0,62,0.00,,,0.00,VWS V14.01,2013-05-16 11:14:00,
2013-05-16 07:19:00,56.3,43.4,29.85,WNW,288,0.0,0.0,62,0.00,,,0.00,VWS V14.01,2013-05-16 11:19:00,
2013-05-16 07:20:00,56.5,43.6,29.85,WNW,288,0.0,0.0,62,0.00,,,0.00,VWS V14.01,2013-05-16 11:20:00,
2013-05-16 07:24:00,56.7,43.8,29.85,WNW,288,0.0,0.0,62,0.00,,,0.00,VWS V14.01,2013-05-16 11:24:00,
2013-05-16 07:29:00,56.9,44.0,29.85,WNW,288,0.0,0.0,62,0.00,,,0.00,VWS V14.01,2013-05-16 11:29:00,
2013-05-16 07:30:00,57.0,44.1,29.85,WNW,288,0.0,0.0,62,0.00,,,0.00,VWS V14.01,2013-05-16 11:30:00,
2013-05-16 07:34:00,57.0,44.1,29.85,WNW,288,0.0,0.0,62,0.00,,,0.00,VWS V14.01,2013-05-16 11:34:00,
2013-05-16 07:39:00,57.5,44.5,29.85,WNW,288,0.0,0.0,62,0.00,,,0.00,VWS V14.01,2013-05-16 11:39:00,
2013-05-16 07:40:00,57.9,44.9,29.85,WNW,288,0.0,0.0,62,0.00,,,0.00,VWS V14.01,2013-05-16 11:40:00,
2013-05-16 07:44:00,58.9,45.8,29.85,WNW,288,0.0,0.0,62,0.00,,,0.00,VWS V14.01,2013-05-16 11:44:00,
2013-05-16 07:49:00,62.3,48.0,29.85,WNW,288,0.0,0.0,59,0.00,,,0.00,VWS V14.01,2013-05-16 11:49:00,
2013-05-16 07:50:00,64.0,48.4,29.85,WNW,288,0.0,0.0,57,0.00,,,0.00,VWS V14.01,2013-05-16 11:50:00,
2013-05-16 07:54:00,65.5,48.0,29.86,West,266,0.0,0.0,53,0.00,,,0.00,VWS V14.01,2013-05-16 11:54:00,
2013-05-16 07:59:00,66.6,47.8,29.86,WNW,288,0.0,0.0,51,0.00,,,0.00,VWS V14.01,2013-05-16 11:59:00,
2013-05-16 08:00:00,66.6,47.8,29.86,WNW,288,0.0,0.0,51,0.00,,,0.00,VWS V14.01,2013-05-16 12:00:00,
2013-05-16 08:04:00,66.4,46.9,29.86,West,266,0.0,0.0,49,0.00,,,0.00,VWS V14.01,2013-05-16 12:04:00,
2013-05-16 08:09:00,66.1,46.6,29.86,West,266,0.0,0.0,49,0.00,,,0.00,VWS V14.01,2013-05-16 12:09:00,
2013-05-16 08:10:00,65.5,46.0,29.86,West,266,0.0,0.0,49,0.00,,,0.00,VWS V14.01,2013-05-16 12:10:00,
2013-05-16 08:14:00,65.2,45.1,29.86,West,266,0.0,0.0,48,0.00,,,0.00,VWS V14.01,2013-05-16 12:14:00,
2013-05-16 08:19:00,64.5,44.5,29.86,WNW,288,0.0,0.0,48,0.00,,,0.00,VWS V14.01,2013-05-16 12:19:00,
2013-05-16 08:20:00,64.4,44.4,29.86,WSW,244,0.0,0.0,48,0.00,,,0.00,VWS V14.01,2013-05-16 12:20:00,
2013-05-16 08:24:00,64.2,44.9,29.86,West,266,0.0,0.0,49,0.00,,,0.00,VWS V14.01,2013-05-16 12:24:00,
2013-05-16 08:29:00,64.0,44.7,29.86,West,266,0.0,0.0,49,0.00,,,0.00,VWS V14.01,2013-05-16 12:29:00,
2013-05-16 08:30:00,63.8,44.5,29.86,WNW,288,0.0,0.0,49,0.00,,,0.00,VWS V14.01,2013-05-16 12:30:00,
2013-05-16 08:34:00,63.6,44.3,29.86,West,266,0.0,0.0,49,0.00,,,0.00,VWS V14.01,2013-05-16 12:34:00,
2013-05-16 08:39:00,63.5,44.2,29.87,WNW,288,0.0,0.0,49,0.00,,,0.00,VWS V14.01,2013-05-16 12:39:00,
2013-05-16 08:40:00,63.5,44.2,29.87,WNW,288,0.0,0.0,49,0.00,,,0.00,VWS V14.01,2013-05-16 12:40:00,
2013-05-16 08:44:00,63.5,44.2,29.87,West,266,0.0,0.0,49,0.00,,,0.00,VWS V14.01,2013-05-16 12:44:00,
2013-05-16 08:49:00,63.6,44.3,29.87,West,266,0.0,0.0,49,0.00,,,0.00,VWS V14.01,2013-05-16 12:49:00,
2013-05-16 08:50:00,63.6,44.3,29.87,West,266,0.0,0.0,49,0.00,,,0.00,VWS V14.01,2013-05-16 12:50:00,
2013-05-16 08:54:00,63.6,44.3,29.87,West,266,0.0,0.0,49,0.00,,,0.00,VWS V14.01,2013-05-16 12:54:00,
2013-05-16 08:59:00,63.6,44.3,29.87,WNW,288,0.0,5.3,49,0.00,,,0.00,VWS V14.01,2013-05-16 12:59:00,
2013-05-16 09:00:00,63.6,43.7,29.87,WNW,288,0.0,5.3,48,0.00,,,0.00,VWS V14.01,2013-05-16 13:00:00,
2013-05-16 09:04:00,64.0,44.0,29.87,NW,311,0.0,0.0,48,0.00,,,0.00,VWS V14.01,2013-05-16 13:04:00,
2013-05-16 09:09:00,64.0,44.0,29.87,West,266,0.0,0.8,48,0.00,,,0.00,VWS V14.01,2013-05-16 13:09:00,
2013-05-16 09:10:00,64.2,44.2,29.87,WNW,288,1.1,1.1,48,0.00,,,0.00,VWS V14.01,2013-05-16 13:10:00,
2013-05-16 09:14:00,64.2,44.2,29.87,West,266,0.0,1.1,48,0.00,,,0.00,VWS V14.01,2013-05-16 13:14:00,
2013-05-16 09:19:00,64.5,43.8,29.87,West,266,0.0,2.0,47,0.00,,,0.00,VWS V14.01,2013-05-16 13:19:00,
2013-05-16 09:20:00,64.5,43.8,29.87,WNW,288,0.0,2.0,47,0.00,,,0.00,VWS V14.01,2013-05-16 13:20:00,
2013-05-16 09:24:00,64.7,44.7,29.87,SW,221,0.0,0.0,48,0.00,,,0.00,VWS V14.01,2013-05-16 13:24:00,
2013-05-16 09:29:00,64.9,44.9,29.87,SSW,198,2.2,2.2,48,0.00,,,0.00,VWS V14.01,2013-05-16 13:29:00,
2013-05-16 09:30:00,65.2,45.1,29.87,SSW,198,2.2,2.2,48,0.00,,,0.00,VWS V14.01,2013-05-16 13:30:00,
2013-05-16 09:34:00,65.4,44.6,29.87,WSW,244,0.0,3.8,47,0.00,,,0.00,VWS V14.01,2013-05-16 13:34:00,
2013-05-16 09:39:00,65.7,44.2,29.87,SW,221,1.3,3.8,46,0.00,,,0.00,VWS V14.01,2013-05-16 13:39:00,
2013-05-16 09:40:00,65.9,44.4,29.87,West,266,1.1,3.8,46,0.00,,,0.00,VWS V14.01,2013-05-16 13:40:00,
2013-05-16 09:44:00,66.1,44.5,29.87,WNW,288,0.0,5.3,46,0.00,,,0.00,VWS V14.01,2013-05-16 13:44:00,
2013-05-16 09:49:00,66.3,44.7,29.87,WNW,288,0.0,5.3,46,0.00,,,0.00,VWS V14.01,2013-05-16 13:49:00,
2013-05-16 09:50:00,66.4,44.8,29.87,SW,221,0.8,5.3,46,0.00,,,0.00,VWS V14.01,2013-05-16 13:50:00,
2013-05-16 09:54:00,66.6,45.0,29.87,WNW,288,0.0,0.8,46,0.00,,,0.00,VWS V14.01,2013-05-16 13:54:00,
2013-05-16 09:59:00,67.0,44.7,29.87,SW,221,0.0,0.8,44,0.00,,,0.00,VWS V14.01,2013-05-16 13:59:00,
2013-05-16 10:00:00,67.0,44.7,29.87,WSW,244,0.0,0.8,44,0.00,,,0.00,VWS V14.01,2013-05-16 14:00:00,
2013-05-16 10:04:00,67.3,45.0,29.87,WSW,244,1.7,1.7,44,0.00,,,0.00,VWS V14.01,2013-05-16 14:04:00,
2013-05-16 10:09:00,68.0,45.5,29.87,WSW,244,1.1,7.6,44,0.00,,,0.00,VWS V14.01,2013-05-16 14:09:00,
2013-05-16 10:10:00,68.0,45.5,29.87,West,266,0.0,7.6,44,0.00,,,0.00,VWS V14.01,2013-05-16 14:10:00,
2013-05-16 10:15:00,68.3,45.1,29.87,WSW,244,4.9,4.9,43,0.00,,,0.00,VWS V14.01,2013-05-16 14:15:00,
2013-05-16 10:20:00,68.9,45.6,29.87,West,266,0.6,4.9,43,0.00,,,0.00,VWS V14.01,2013-05-16 14:20:00,
2013-05-16 10:25:00,69.6,45.5,29.88,West,266,0.0,3.8,42,0.00,,,0.00,VWS V14.01,2013-05-16 14:25:00,
2013-05-16 10:30:00,69.8,45.7,29.88,NW,311,4.0,4.0,42,0.00,,,0.00,VWS V14.01,2013-05-16 14:30:00,
2013-05-16 10:35:00,70.3,45.4,29.88,WNW,288,0.0,2.2,41,0.00,,,0.00,VWS V14.01,2013-05-16 14:35:00,
2013-05-16 10:40:00,70.6,45.6,29.88,WNW,288,4.0,4.0,41,0.00,,,0.00,VWS V14.01,2013-05-16 14:40:00,
2013-05-16 10:45:00,71.1,45.2,29.88,WNW,288,0.0,2.2,39,0.00,,,0.00,VWS V14.01,2013-05-16 14:45:00,
2013-05-16 10:50:00,71.5,45.6,29.88,West,266,0.0,2.2,39,0.00,,,0.00,VWS V14.01,2013-05-16 14:50:00,
2013-05-16 10:55:00,71.7,44.9,29.88,NE,41,2.0,2.0,38,0.00,,,0.00,VWS V14.01,2013-05-16 14:55:00,
2013-05-16 11:00:00,72.0,44.3,29.88,NNE,18,0.0,2.6,37,0.00,,,0.00,VWS V14.01,2013-05-16 15:00:00,
2013-05-16 11:05:00,72.4,44.7,29.88,NNE,18,0.0,1.3,37,0.00,,,0.00,VWS V14.01,2013-05-16 15:05:00,
2013-05-16 11:10:00,72.6,44.0,29.88,NW,311,2.6,2.9,36,0.00,,,0.00,VWS V14.01,2013-05-16 15:10:00,
2013-05-16 11:15:00,72.6,44.0,29.89,WNW,288,0.0,0.0,36,0.00,,,0.00,VWS V14.01,2013-05-16 15:15:00,
2013-05-16 11:20:00,72.9,44.3,29.88,WSW,244,0.0,0.0,36,0.00,,,0.00,VWS V14.01,2013-05-16 15:20:00,
2013-05-16 11:25:00,73.4,43.7,29.89,North,356,0.0,3.5,35,0.00,,,0.00,VWS V14.01,2013-05-16 15:25:00,
2013-05-16 11:30:00,73.6,43.9,29.89,NNW,334,3.8,3.8,35,0.00,,,0.00,VWS V14.01,2013-05-16 15:30:00,
2013-05-16 11:35:00,73.9,44.2,29.89,NW,311,0.0,3.8,35,0.00,,,0.00,VWS V14.01,2013-05-16 15:35:00,
2013-05-16 11:40:00,74.1,43.4,29.89,West,266,0.0,0.0,33,0.00,,,0.00,VWS V14.01,2013-05-16 15:40:00,
2013-05-16 11:45:00,74.5,43.8,29.89,North,356,0.0,0.0,33,0.00,,,0.00,VWS V14.01,2013-05-16 15:45:00,
2013-05-16 11:50:00,74.5,42.8,29.89,NNE,18,0.0,0.0,32,0.00,,,0.00,VWS V14.01,2013-05-16 15:50:00,
2013-05-16 11:55:00,74.7,41.9,29.89,NE,41,0.0,1.5,31,0.00,,,0.00,VWS V14.01,2013-05-16 15:55:00,
2013-05-16 12:00:00,74.7,43.0,29.89,West,266,0.0,0.0,32,0.00,,,0.00,VWS V14.01,2013-05-16 16:00:00,
2013-05-16 12:05:00,74.8,43.0,29.89,West,266,0.0,2.2,32,0.00,,,0.00,VWS V14.01,2013-05-16 16:05:00,
2013-05-16 12:10:00,74.8,43.0,29.89,NNE,18,0.0,0.0,32,0.00,,,0.00,VWS V14.01,2013-05-16 16:10:00,
2013-05-16 12:15:00,74.8,41.0,29.89,NNE,18,0.8,0.8,30,0.00,,,0.00,VWS V14.01,2013-05-16 16:15:00,
2013-05-16 12:20:00,74.8,42.0,29.89,West,266,0.0,0.0,31,0.00,,,0.00,VWS V14.01,2013-05-16 16:20:00,
2013-05-16 12:25:00,74.8,43.0,29.90,NW,311,0.0,0.0,32,0.00,,,0.00,VWS V14.01,2013-05-16 16:25:00,
2013-05-16 12:30:00,75.2,42.4,29.89,North,356,0.0,0.0,31,0.00,,,0.00,VWS V14.01,2013-05-16 16:30:00,
2013-05-16 12:35:00,75.2,41.3,29.89,North,356,0.0,0.0,30,0.00,,,0.00,VWS V14.01,2013-05-16 16:35:00,
2013-05-16 12:40:00,75.4,42.6,29.89,West,266,0.0,0.0,31,0.00,,,0.00,VWS V14.01,2013-05-16 16:40:00,
2013-05-16 12:45:00,75.8,42.8,29.89,West,266,0.0,0.0,31,0.00,,,0.00,VWS V14.01,2013-05-16 16:45:00,
2013-05-16 12:50:00,75.8,41.8,29.89,NW,311,0.0,0.0,30,0.00,,,0.00,VWS V14.01,2013-05-16 16:50:00,
2013-05-16 12:56:00,76.0,43.0,29.89,WNW,288,0.0,0.0,31,0.00,,,0.00,VWS V14.01,2013-05-16 16:56:00,
2013-05-16 13:00:00,76.2,42.1,29.89,NNW,334,0.0,0.0,30,0.00,,,0.00,VWS V14.01,2013-05-16 17:00:00,
2013-05-16 13:01:00,76.2,42.1,29.89,NNW,334,0.0,0.0,30,0.00,,,0.00,VWS V14.01,2013-05-16 17:01:00,
2013-05-16 13:06:00,76.4,41.2,29.89,WNW,288,0.0,0.0,28,0.00,,,0.00,VWS V14.01,2013-05-16 17:06:00,
2013-05-16 13:10:00,76.4,41.2,29.89,WNW,288,5.1,5.1,28,0.00,,,0.00,VWS V14.01,2013-05-16 17:10:00,
2013-05-16 13:11:00,76.4,41.2,29.89,WNW,288,5.1,5.1,28,0.00,,,0.00,VWS V14.01,2013-05-16 17:11:00,
2013-05-16 13:16:00,76.4,41.2,29.89,NW,311,0.0,5.1,28,0.00,,,0.00,VWS V14.01,2013-05-16 17:16:00,
2013-05-16 13:20:00,76.4,41.2,29.89,WNW,288,0.0,5.1,28,0.00,,,0.00,VWS V14.01,2013-05-16 17:20:00,
2013-05-16 13:21:00,76.4,41.2,29.89,WNW,288,0.0,0.0,28,0.00,,,0.00,VWS V14.01,2013-05-16 17:21:00,
2013-05-16 13:26:00,76.6,41.4,29.89,North,356,2.2,2.2,28,0.00,,,0.00,VWS V14.01,2013-05-16 17:26:00,
2013-05-16 13:30:00,76.6,41.4,29.89,North,356,1.1,2.2,28,0.00,,,0.00,VWS V14.01,2013-05-16 17:30:00,
2013-05-16 13:31:00,76.6,41.4,29.89,North,356,1.1,1.1,28,0.00,,,0.00,VWS V14.01,2013-05-16 17:31:00,
2013-05-16 13:36:00,76.7,40.3,29.89,WNW,288,0.0,1.7,27,0.00,,,0.00,VWS V14.01,2013-05-16 17:36:00,
2013-05-16 13:40:00,76.7,40.3,29.89,NE,41,0.0,2.0,27,0.00,,,0.00,VWS V14.01,2013-05-16 17:40:00,
2013-05-16 13:41:00,76.7,40.3,29.89,NE,41,0.0,0.0,27,0.00,,,0.00,VWS V14.01,2013-05-16 17:41:00,
2013-05-16 13:46:00,76.7,40.3,29.89,NNE,18,1.3,1.3,27,0.00,,,0.00,VWS V14.01,2013-05-16 17:46:00,
2013-05-16 13:50:00,76.7,39.1,29.89,NE,41,2.0,2.2,26,0.00,,,0.00,VWS V14.01,2013-05-16 17:50:00,
2013-05-16 13:51:00,76.7,39.1,29.89,NE,41,2.0,2.0,26,0.00,,,0.00,VWS V14.01,2013-05-16 17:51:00,
2013-05-16 13:56:00,76.9,39.3,29.88,ENE,64,0.0,3.8,26,0.00,,,0.00,VWS V14.01,2013-05-16 17:56:00,
2013-05-16 14:00:00,77.1,40.7,29.88,North,356,0.0,3.8,27,0.00,,,0.00,VWS V14.01,2013-05-16 18:00:00,
2013-05-16 14:01:00,77.1,40.7,29.88,North,356,0.0,0.0,27,0.00,,,0.00,VWS V14.01,2013-05-16 18:01:00,
2013-05-16 14:06:00,77.3,40.8,29.88,NNW,334,0.8,0.8,27,0.00,,,0.00,VWS V14.01,2013-05-16 18:06:00,
2013-05-16 14:10:00,77.3,39.6,29.88,North,356,0.0,0.8,26,0.00,,,0.00,VWS V14.01,2013-05-16 18:10:00,
2013-05-16 14:11:00,77.5,39.8,29.88,NNE,18,0.0,0.0,26,0.00,,,0.00,VWS V14.01,2013-05-16 18:11:00,
2013-05-16 14:16:00,77.5,39.8,29.89,NNE,18,1.3,1.3,26,0.00,,,0.00,VWS V14.01,2013-05-16 18:16:00,
2013-05-16 14:20:00,77.6,39.9,29.88,NE,41,0.0,1.3,26,0.00,,,0.00,VWS V14.01,2013-05-16 18:20:00,
2013-05-16 14:21:00,77.8,41.3,29.88,West,266,0.0,0.0,27,0.00,,,0.00,VWS V14.01,2013-05-16 18:21:00,
2013-05-16 14:26:00,78.1,41.5,29.89,WNW,288,2.2,4.9,27,0.00,,,0.00,VWS V14.01,2013-05-16 18:26:00,
2013-05-16 14:30:00,78.3,40.4,29.89,SW,221,2.0,4.9,26,0.00,,,0.00,VWS V14.01,2013-05-16 18:30:00,
2013-05-16 14:31:00,78.3,41.6,29.88,North,356,0.0,2.0,27,0.00,,,0.00,VWS V14.01,2013-05-16 18:31:00,
2013-05-16 14:36:00,78.5,40.6,29.88,North,356,1.3,3.5,26,0.00,,,0.00,VWS V14.01,2013-05-16 18:36:00,
2013-05-16 14:40:00,78.6,40.7,29.88,NW,311,0.0,3.5,26,0.00,,,0.00,VWS V14.01,2013-05-16 18:40:00,
2013-05-16 14:41:00,78.6,40.7,29.88,WNW,288,0.0,0.0,26,0.00,,,0.00,VWS V14.01,2013-05-16 18:41:00,
2013-05-16 14:46:00,79.0,41.0,29.88,WNW,288,0.0,2.4,26,0.00,,,0.00,VWS V14.01,2013-05-16 18:46:00,
2013-05-16 14:50:00,79.2,41.2,29.88,North,356,0.0,6.0,26,0.00,,,0.00,VWS V14.01,2013-05-16 18:50:00,
2013-05-16 14:51:00,79.2,41.2,29.89,West,266,0.0,0.0,26,0.00,,,0.00,VWS V14.01,2013-05-16 18:51:00,
2013-05-16 14:56:00,79.4,40.1,29.89,WNW,288,0.0,5.8,25,0.00,,,0.00,VWS V14.01,2013-05-16 18:56:00,
2013-05-16 15:00:00,79.5,38.9,29.89,West,266,0.0,5.8,23,0.00,,,0.00,VWS V14.01,2013-05-16 19:00:00,
2013-05-16 15:01:00,79.5,38.9,29.89,West,266,0.0,0.0,23,0.00,,,0.00,VWS V14.01,2013-05-16 19:01:00,
2013-05-16 15:06:00,79.7,39.1,29.89,West,266,0.0,5.1,23,0.00,,,0.00,VWS V14.01,2013-05-16 19:06:00,
2013-05-16 15:10:00,79.9,39.2,29.89,WNW,288,0.0,5.1,23,0.00,,,0.00,VWS V14.01,2013-05-16 19:10:00,
2013-05-16 15:11:00,79.9,39.2,29.89,West,266,0.0,0.0,23,0.00,,,0.00,VWS V14.01,2013-05-16 19:11:00,
2013-05-16 15:16:00,80.1,39.4,29.89,WNW,288,0.0,1.7,23,0.00,,,0.00,VWS V14.01,2013-05-16 19:16:00,
2013-05-16 15:20:00,80.1,39.4,29.89,West,266,0.0,6.2,23,0.00,,,0.00,VWS V14.01,2013-05-16 19:20:00,
2013-05-16 15:21:00,80.3,39.6,29.88,WSW,244,0.0,0.0,23,0.00,,,0.00,VWS V14.01,2013-05-16 19:21:00,
2013-05-16 15:26:00,80.1,39.4,29.89,NW,311,0.0,1.3,23,0.00,,,0.00,VWS V14.01,2013-05-16 19:26:00,
2013-05-16 15:30:00,80.1,39.4,29.88,WSW,244,0.0,2.6,23,0.00,,,0.00,VWS V14.01,2013-05-16 19:30:00,
2013-05-16 15:31:00,80.3,39.6,29.88,SW,221,1.5,1.5,23,0.00,,,0.00,VWS V14.01,2013-05-16 19:31:00,
2013-05-16 15:36:00,80.1,39.4,29.88,NNW,334,0.0,1.5,23,0.00,,,0.00,VWS V14.01,2013-05-16 19:36:00,
2013-05-16 15:40:00,79.7,37.7,29.88,NE,41,0.0,1.5,22,0.00,,,0.00,VWS V14.01,2013-05-16 19:40:00,
2013-05-16 15:42:00,79.7,37.7,29.88,NE,41,0.0,0.0,22,0.00,,,0.00,VWS V14.01,2013-05-16 19:42:00,
2013-05-16 15:47:00,79.5,37.5,29.89,North,356,0.0,1.5,22,0.00,,,0.00,VWS V14.01,2013-05-16 19:47:00,
2013-05-16 15:50:00,79.2,37.2,29.89,NNE,18,0.0,1.5,22,0.00,,,0.00,VWS V14.01,2013-05-16 19:50:00,
2013-05-16 15:52:00,79.2,37.2,29.89,NNE,18,0.0,0.0,22,0.00,,,0.00,VWS V14.01,2013-05-16 19:52:00,
2013-05-16 15:57:00,78.6,38.1,29.89,NW,311,0.0,4.0,23,0.00,,,0.00,VWS V14.01,2013-05-16 19:57:00,
2013-05-16 16:00:00,78.6,38.1,29.89,West,266,0.0,4.0,23,0.00,,,0.00,VWS V14.01,2013-05-16 20:00:00,
2013-05-16 16:02:00,78.6,38.1,29.88,NW,311,2.4,2.4,23,0.00,,,0.00,VWS V14.01,2013-05-16 20:02:00,
2013-05-16 16:07:00,78.6,39.4,29.89,WNW,288,0.0,2.4,25,0.00,,,0.00,VWS V14.01,2013-05-16 20:07:00,
2013-05-16 16:10:00,78.5,38.0,29.88,NNW,334,0.0,2.4,23,0.00,,,0.00,VWS V14.01,2013-05-16 20:10:00,
2013-05-16 16:12:00,78.6,38.1,29.88,North,356,0.0,0.0,23,0.00,,,0.00,VWS V14.01,2013-05-16 20:12:00,
2013-05-16 16:17:00,78.6,38.1,29.88,East,86,0.0,0.0,23,0.00,,,0.00,VWS V14.01,2013-05-16 20:17:00,
2013-05-16 16:20:00,78.6,39.4,29.88,NW,311,0.0,0.0,25,0.00,,,0.00,VWS V14.01,2013-05-16 20:20:00,
2013-05-16 16:22:00,78.6,39.4,29.88,WSW,244,3.1,3.1,25,0.00,,,0.00,VWS V14.01,2013-05-16 20:22:00,
2013-05-16 16:27:00,78.6,39.4,29.88,WNW,288,0.0,3.1,25,0.00,,,0.00,VWS V14.01,2013-05-16 20:27:00,
2013-05-16 16:30:00,78.6,38.1,29.88,NNE,18,0.0,3.1,23,0.00,,,0.00,VWS V14.01,2013-05-16 20:30:00,
2013-05-16 16:32:00,78.5,39.3,29.88,NNE,18,0.0,0.0,25,0.00,,,0.00,VWS V14.01,2013-05-16 20:32:00,
2013-05-16 16:37:00,78.3,36.5,29.88,ENE,64,0.0,0.0,22,0.00,,,0.00,VWS V14.01,2013-05-16 20:37:00,
2013-05-16 16:40:00,78.1,37.7,29.88,NE,41,0.0,0.0,23,0.00,,,0.00,VWS V14.01,2013-05-16 20:40:00,
2013-05-16 16:42:00,77.8,37.5,29.88,NE,41,0.0,0.0,23,0.00,,,0.00,VWS V14.01,2013-05-16 20:42:00,
2013-05-16 16:47:00,77.6,38.6,29.88,NE,41,0.0,0.0,25,0.00,,,0.00,VWS V14.01,2013-05-16 20:47:00,
2013-05-16 16:50:00,77.6,38.6,29.88,NE,41,0.0,0.0,25,0.00,,,0.00,VWS V14.01,2013-05-16 20:50:00,
2013-05-16 16:52:00,77.6,38.6,29.88,NE,41,0.0,0.0,25,0.00,,,0.00,VWS V14.01,2013-05-16 20:52:00,
2013-05-16 16:57:00,77.6,38.6,29.88,NNE,18,0.0,0.0,25,0.00,,,0.00,VWS V14.01,2013-05-16 20:57:00,
2013-05-16 17:00:00,77.6,38.6,29.88,North,356,0.0,0.0,25,0.00,,,0.00,VWS V14.01,2013-05-16 21:00:00,
2013-05-16 17:02:00,77.8,38.8,29.88,West,266,0.0,0.0,25,0.00,,,0.00,VWS V14.01,2013-05-16 21:02:00,
2013-05-16 17:07:00,78.1,39.0,29.88,West,266,0.0,0.0,25,0.00,,,0.00,VWS V14.01,2013-05-16 21:07:00,
2013-05-16 17:10:00,78.1,39.0,29.88,WSW,244,2.4,6.7,25,0.00,,,0.00,VWS V14.01,2013-05-16 21:10:00,
2013-05-16 17:12:00,78.1,39.0,29.88,WNW,288,2.0,7.1,25,0.00,,,0.00,VWS V14.01,2013-05-16 21:12:00,
2013-05-16 17:17:00,78.1,39.0,29.89,West,266,0.0,7.1,25,0.00,,,0.00,VWS V14.01,2013-05-16 21:17:00,
2013-05-16 17:20:00,78.1,39.0,29.88,West,266,0.0,7.1,25,0.00,,,0.00,VWS V14.01,2013-05-16 21:20:00,
2013-05-16 17:22:00,78.3,39.2,29.89,West,266,1.5,1.5,25,0.00,,,0.00,VWS V14.01,2013-05-16 21:22:00,
2013-05-16 17:27:00,78.3,37.8,29.89,NW,311,0.0,1.5,23,0.00,,,0.00,VWS V14.01,2013-05-16 21:27:00,
2013-05-16 17:30:00,78.1,37.7,29.89,NW,311,0.0,1.5,23,0.00,,,0.00,VWS V14.01,2013-05-16 21:30:00,
2013-05-16 17:32:00,78.3,37.8,29.89,ENE,64,0.0,0.0,23,0.00,,,0.00,VWS V14.01,2013-05-16 21:32:00,
2013-05-16 17:37:00,78.1,36.3,29.89,NE,41,0.0,0.0,22,0.00,,,0.00,VWS V14.01,2013-05-16 21:37:00,
2013-05-16 17:40:00,78.1,37.7,29.89,NE,41,0.0,0.0,23,0.00,,,0.00,VWS V14.01,2013-05-16 21:40:00,
2013-05-16 17:42:00,78.1,37.7,29.89,East,86,0.0,0.0,23,0.00,,,0.00,VWS V14.01,2013-05-16 21:42:00,
2013-05-16 17:47:00,77.6,38.6,29.89,ENE,64,0.0,0.0,25,0.00,,,0.00,VWS V14.01,2013-05-16 21:47:00,
2013-05-16 17:50:00,77.5,39.8,29.90,ENE,64,0.0,0.0,26,0.00,,,0.00,VWS V14.01,2013-05-16 21:50:00,
2013-05-16 17:52:00,77.3,39.6,29.89,ENE,64,0.0,0.0,26,0.00,,,0.00,VWS V14.01,2013-05-16 21:52:00,
2013-05-16 17:57:00,76.7,39.1,29.89,NE,41,0.0,0.0,26,0.00,,,0.00,VWS V14.01,2013-05-16 21:57:00,
2013-05-16 18:00:00,76.4,38.8,29.89,ENE,64,0.0,0.0,26,0.00,,,0.00,VWS V14.01,2013-05-16 22:00:00,
2013-05-16 18:02:00,76.2,38.7,29.89,ENE,64,0.0,0.0,26,0.00,,,0.00,VWS V14.01,2013-05-16 22:02:00,
2013-05-16 18:07:00,75.8,39.5,29.89,NE,41,0.0,0.0,27,0.00,,,0.00,VWS V14.01,2013-05-16 22:07:00,
2013-05-16 18:10:00,75.4,40.4,29.90,ENE,64,0.0,0.0,28,0.00,,,0.00,VWS V14.01,2013-05-16 22:10:00,
2013-05-16 18:12:00,75.4,40.4,29.90,ENE,64,0.0,0.0,28,0.00,,,0.00,VWS V14.01,2013-05-16 22:12:00,
2013-05-16 18:17:00,75.2,39.1,29.90,SE,131,0.0,0.0,27,0.00,,,0.00,VWS V14.01,2013-05-16 22:17:00,
2013-05-16 18:20:00,74.8,39.9,29.90,ESE,108,0.0,0.0,28,0.00,,,0.00,VWS V14.01,2013-05-16 22:20:00,
2013-05-16 18:22:00,74.8,39.9,29.89,East,86,0.0,0.0,28,0.00,,,0.00,VWS V14.01,2013-05-16 22:22:00,
2013-05-16 18:27:00,74.5,39.6,29.89,ENE,64,0.0,0.0,28,0.00,,,0.00,VWS V14.01,2013-05-16 22:27:00,
2013-05-16 18:30:00,74.5,39.6,29.90,ENE,64,0.0,0.0,28,0.00,,,0.00,VWS V14.01,2013-05-16 22:30:00,
2013-05-16 18:32:00,74.3,38.3,29.89,ENE,64,1.1,1.1,27,0.00,,,0.00,VWS V14.01,2013-05-16 22:32:00,
2013-05-16 18:38:00,74.1,39.2,29.90,ENE,64,1.5,1.5,28,0.00,,,0.00,VWS V14.01,2013-05-16 22:38:00,
2013-05-16 18:40:00,73.9,37.9,29.90,NE,41,2.9,3.3,27,0.00,,,0.00,VWS V14.01,2013-05-16 22:40:00,
2013-05-16 18:43:00,73.8,37.8,29.90,ENE,64,0.0,2.9,27,0.00,,,0.00,VWS V14.01,2013-05-16 22:43:00,
2013-05-16 18:48:00,73.6,37.7,29.90,ENE,64,0.0,2.9,27,0.00,,,0.00,VWS V14.01,2013-05-16 22:48:00,
2013-05-16 18:50:00,73.4,37.5,29.90,ENE,64,0.0,2.9,27,0.00,,,0.00,VWS V14.01,2013-05-16 22:50:00,
2013-05-16 18:53:00,73.4,37.5,29.90,ENE,64,0.0,1.1,27,0.00,,,0.00,VWS V14.01,2013-05-16 22:53:00,
2013-05-16 18:58:00,73.2,38.4,29.90,ENE,64,0.0,1.1,28,0.00,,,0.00,VWS V14.01,2013-05-16 22:58:00,
2013-05-16 19:00:00,72.9,38.2,29.90,ENE,64,0.0,1.1,28,0.00,,,0.00,VWS V14.01,2013-05-16 23:00:00,
2013-05-16 19:03:00,72.9,38.2,29.90,ENE,64,0.0,0.0,28,0.00,,,0.00,VWS V14.01,2013-05-16 23:03:00,
2013-05-16 19:08:00,72.8,37.0,29.91,ENE,64,0.0,1.1,27,0.00,,,0.00,VWS V14.01,2013-05-16 23:08:00,
2013-05-16 19:10:00,72.8,38.2,29.91,NE,41,0.0,2.9,28,0.00,,,0.00,VWS V14.01,2013-05-16 23:10:00,
2013-05-16 19:13:00,72.6,38.0,29.91,NE,41,0.0,0.0,28,0.00,,,0.00,VWS V14.01,2013-05-16 23:13:00,
2013-05-16 19:18:00,72.4,36.7,29.91,ENE,64,0.0,3.1,27,0.00,,,0.00,VWS V14.01,2013-05-16 23:18:00,
2013-05-16 19:20:00,72.2,36.5,29.91,ENE,64,0.0,3.1,27,0.00,,,0.00,VWS V14.01,2013-05-16 23:20:00,
2013-05-16 19:23:00,72.0,36.3,29.91,NE,41,0.0,0.0,27,0.00,,,0.00,VWS V14.01,2013-05-16 23:23:00,
2013-05-16 19:28:00,71.5,35.9,29.92,ENE,64,0.0,2.6,27,0.00,,,0.00,VWS V14.01,2013-05-16 23:28:00,
2013-05-16 19:30:00,71.0,36.5,29.91,ENE,64,0.0,2.6,28,0.00,,,0.00,VWS V14.01,2013-05-16 23:30:00,
2013-05-16 19:33:00,70.8,35.2,29.91,ENE,64,0.0,2.4,27,0.00,,,0.00,VWS V14.01,2013-05-16 23:33:00,
2013-05-16 19:38:00,70.2,34.7,29.92,ENE,64,0.0,2.4,27,0.00,,,0.00,VWS V14.01,2013-05-16 23:38:00,
2013-05-16 19:40:00,69.8,35.6,29.92,North,356,0.0,2.4,28,0.00,,,0.00,VWS V14.01,2013-05-16 23:40:00,
2013-05-16 19:43:00,69.6,35.4,29.92,ENE,64,0.6,0.6,28,0.00,,,0.00,VWS V14.01,2013-05-16 23:43:00,
2013-05-16 19:48:00,69.1,36.0,29.92,ENE,64,0.0,0.6,30,0.00,,,0.00,VWS V14.01,2013-05-16 23:48:00,
2013-05-16 19:50:00,68.7,35.7,29.92,ENE,64,0.0,1.3,30,0.00,,,0.00,VWS V14.01,2013-05-16 23:50:00,
2013-05-16 19:53:00,68.3,35.3,29.92,ENE,64,0.0,0.0,30,0.00,,,0.00,VWS V14.01,2013-05-16 23:53:00,
2013-05-16 19:58:00,67.8,33.8,29.93,ENE,64,0.0,3.5,28,0.00,,,0.00,VWS V14.01,2013-05-16 23:58:00,
2013-05-16 20:00:00,67.3,34.5,29.93,ENE,64,3.1,3.5,30,0.00,,,0.00,VWS V14.01,2013-05-17 00:00:00,
2013-05-16 20:03:00,67.0,34.2,29.93,ENE,64,0.0,3.1,30,0.00,,,0.00,VWS V14.01,2013-05-17 00:03:00,
2013-05-16 20:08:00,66.4,34.7,29.94,NE,41,0.0,3.1,31,0.00,,,0.00,VWS V14.01,2013-05-17 00:08:00,
2013-05-16 20:10:00,66.3,34.6,29.94,ENE,64,4.4,4.4,31,0.00,,,0.00,VWS V14.01,2013-05-17 00:10:00,
2013-05-16 20:13:00,65.9,34.3,29.94,ENE,64,0.0,4.4,31,0.00,,,0.00,VWS V14.01,2013-05-17 00:13:00,
2013-05-16 20:18:00,65.4,33.8,29.95,ENE,64,0.0,4.4,31,0.00,,,0.00,VWS V14.01,2013-05-17 00:18:00,
2013-05-16 20:20:00,65.2,33.6,29.95,NE,41,0.0,4.4,31,0.00,,,0.00,VWS V14.01,2013-05-17 00:20:00,
2013-05-16 20:23:00,64.7,34.2,29.95,ENE,64,0.0,0.0,32,0.00,,,0.00,VWS V14.01,2013-05-17 00:23:00,
2013-05-16 20:28:00,64.2,33.8,29.96,ENE,64,0.0,2.0,32,0.00,,,0.00,VWS V14.01,2013-05-17 00:28:00,
2013-05-16 20:30:00,64.0,33.6,29.95,ENE,64,1.3,2.0,32,0.00,,,0.00,VWS V14.01,2013-05-17 00:30:00,
2013-05-16 20:33:00,63.5,33.2,29.96,ENE,64,0.0,1.3,32,0.00,,,0.00,VWS V14.01,2013-05-17 00:33:00,
2013-05-16 20:38:00,63.1,33.7,29.96,ENE,64,0.0,5.1,33,0.00,,,0.00,VWS V14.01,2013-05-17 00:38:00,
2013-05-16 20:40:00,62.7,33.4,29.96,ENE,64,0.0,5.1,33,0.00,,,0.00,VWS V14.01,2013-05-17 00:40:00,
2013-05-16 20:43:00,62.3,33.1,29.96,ENE,64,0.0,0.0,33,0.00,,,0.00,VWS V14.01,2013-05-17 00:43:00,
2013-05-16 20:50:00,68.7,35.7,29.92,ENE,64,0.0,1.3,30,0.00,,,0.00,VWS V14.01,2013-05-17 00:50:00,
2013-05-16 20:53:00,64.2,33.8,20.50,ENE,64,0.0,0.0,32,99.99,,,99.99,VWS V14.01,2013-05-17 00:53:00,
2013-05-16 20:58:00,61.0,32.8,29.97,NE,41,0.0,0.0,35,0.00,,,0.00,VWS V14.01,2013-05-17 00:58:00,
2013-05-16 21:00:00,60.8,32.6,29.97,NW,311,0.0,0.0,35,0.00,,,0.00,VWS V14.01,2013-05-17 01:00:00,
2013-05-16 21:03:00,60.5,32.4,29.97,NE,41,0.0,0.0,35,0.00,,,0.00,VWS V14.01,2013-05-17 01:03:00,
2013-05-16 21:08:00,60.3,33.1,29.97,NE,41,0.0,0.0,36,0.00,,,0.00,VWS V14.01,2013-05-17 01:08:00,
2013-05-16 21:10:00,60.1,32.9,29.97,NE,41,0.0,0.0,36,0.00,,,0.00,VWS V14.01,2013-05-17 01:10:00,
2013-05-16 21:13:00,59.8,31.8,29.97,NE,41,0.0,0.0,35,0.00,,,0.00,VWS V14.01,2013-05-17 01:13:00,
2013-05-16 21:18:00,59.5,32.4,29.98,ENE,64,0.0,0.0,36,0.00,,,0.00,VWS V14.01,2013-05-17 01:18:00,
2013-05-16 21:20:00,59.3,32.2,29.98,ENE,64,0.0,0.0,36,0.00,,,0.00,VWS V14.01,2013-05-17 01:20:00,
2013-05-16 21:23:00,58.9,31.9,29.98,ENE,64,0.0,0.0,36,0.00,,,0.00,VWS V14.01,2013-05-17 01:23:00,
2013-05-16 21:28:00,58.6,32.4,29.98,ENE,64,0.0,0.0,37,0.00,,,0.00,VWS V14.01,2013-05-17 01:28:00,
2013-05-16 21:30:00,58.6,32.4,29.99,ENE,64,0.0,0.0,37,0.00,,,0.00,VWS V14.01,2013-05-17 01:30:00,
2013-05-16 21:33:00,58.6,32.4,29.99,ENE,64,0.0,0.0,37,0.00,,,0.00,VWS V14.01,2013-05-17 01:33:00,
2013-05-16 21:38:00,58.6,33.2,29.99,ENE,64,0.0,0.0,38,0.00,,,0.00,VWS V14.01,2013-05-17 01:38:00,
2013-05-16 21:40:00,58.4,33.1,29.99,North,356,0.0,0.0,38,0.00,,,0.00,VWS V14.01,2013-05-17 01:40:00,
2013-05-16 21:43:00,58.2,32.9,29.99,NE,41,0.0,0.0,38,0.00,,,0.00,VWS V14.01,2013-05-17 01:43:00,
2013-05-16 21:48:00,58.0,32.7,29.99,NNE,18,0.0,0.0,38,0.00,,,0.00,VWS V14.01,2013-05-17 01:48:00,
2013-05-16 21:50:00,57.9,32.6,29.99,NE,41,0.0,0.0,38,0.00,,,0.00,VWS V14.01,2013-05-17 01:50:00,
2013-05-16 21:53:00,57.7,33.2,29.99,NE,41,0.0,0.0,39,0.00,,,0.00,VWS V14.01,2013-05-17 01:53:00,
2013-05-16 21:58:00,57.7,33.2,29.99,ENE,64,0.0,0.0,39,0.00,,,0.00,VWS V14.01,2013-05-17 01:58:00,
2013-05-16 22:00:00,57.5,33.0,29.99,NE,41,0.0,0.0,39,0.00,,,0.00,VWS V14.01,2013-05-17 02:00:00,
2013-05-16 22:03:00,57.2,32.8,29.99,NE,41,0.0,0.0,39,0.00,,,0.00,VWS V14.01,2013-05-17 02:03:00,
2013-05-16 22:08:00,57.0,33.4,30.00,NNE,18,0.0,0.0,41,0.00,,,0.00,VWS V14.01,2013-05-17 02:08:00,
2013-05-16 22:10:00,56.9,33.3,30.00,NE,41,0.0,0.0,41,0.00,,,0.00,VWS V14.01,2013-05-17 02:10:00,
2013-05-16 22:13:00,56.7,33.1,30.00,ENE,64,0.0,0.0,41,0.00,,,0.00,VWS V14.01,2013-05-17 02:13:00,
2013-05-16 22:18:00,56.5,33.0,30.01,ENE,64,0.0,0.0,41,0.00,,,0.00,VWS V14.01,2013-05-17 02:18:00,
2013-05-16 22:20:00,56.5,33.0,30.01,ENE,64,0.0,0.0,41,0.00,,,0.00,VWS V14.01,2013-05-17 02:20:00,
2013-05-16 22:23:00,56.5,33.7,30.01,East,86,0.0,0.0,42,0.00,,,0.00,VWS V14.01,2013-05-17 02:23:00,
2013-05-16 22:28:00,56.1,33.3,30.01,ENE,64,0.0,0.0,42,0.00,,,0.00,VWS V14.01,2013-05-17 02:28:00,
2013-05-16 22:30:00,56.1,33.3,30.01,ENE,64,0.0,0.0,42,0.00,,,0.00,VWS V14.01,2013-05-17 02:30:00,
2013-05-16 22:33:00,56.0,33.2,30.01,ENE,64,0.0,0.0,42,0.00,,,0.00,VWS V14.01,2013-05-17 02:33:00,
2013-05-16 22:38:00,55.8,33.0,30.02,NE,41,0.0,0.0,42,0.00,,,0.00,VWS V14.01,2013-05-17 02:38:00,
2013-05-16 22:40:00,55.6,32.8,30.02,NE,41,0.0,0.0,42,0.00,,,0.00,VWS V14.01,2013-05-17 02:40:00,
2013-05-16 22:43:00,55.6,32.8,30.02,NE,41,0.0,0.0,42,0.00,,,0.00,VWS V14.01,2013-05-17 02:43:00,
2013-05-16 22:48:00,55.4,33.4,30.02,NE,41,0.0,0.0,43,0.00,,,0.00,VWS V14.01,2013-05-17 02:48:00,
2013-05-16 22:50:00,55.4,32.7,30.02,NE,41,0.0,0.0,42,0.00,,,0.00,VWS V14.01,2013-05-17 02:50:00,
2013-05-16 22:53:00,55.2,33.2,30.02,NE,41,0.0,0.0,43,0.00,,,0.00,VWS V14.01,2013-05-17 02:53:00,
2013-05-16 22:58:00,55.2,33.2,30.02,NE,41,0.0,0.0,43,0.00,,,0.00,VWS V14.01,2013-05-17 02:58:00,
2013-05-16 23:00:00,55.1,33.1,30.02,NE,41,0.0,0.0,43,0.00,,,0.00,VWS V14.01,2013-05-17 03:00:00,
2013-05-16 23:03:00,54.9,32.9,30.02,NNE,18,0.0,0.0,43,0.00,,,0.00,VWS V14.01,2013-05-17 03:03:00,
2013-05-16 23:09:00,54.9,32.9,30.02,NE,41,0.0,2.4,43,0.00,,,0.00,VWS V14.01,2013-05-17 03:09:00,
2013-05-16 23:10:00,54.9,32.9,30.02,ENE,64,0.0,2.4,43,0.00,,,0.00,VWS V14.01,2013-05-17 03:10:00,
2013-05-16 23:14:00,54.7,32.7,30.02,North,356,0.0,0.0,43,0.00,,,0.00,VWS V14.01,2013-05-17 03:14:00,
2013-05-16 23:19:00,54.4,33.2,30.03,ENE,64,0.0,0.0,44,0.00,,,0.00,VWS V14.01,2013-05-17 03:19:00,
2013-05-16 23:20:00,54.2,33.1,30.02,ENE,64,0.0,0.0,44,0.00,,,0.00,VWS V14.01,2013-05-17 03:20:00,
2013-05-16 23:24:00,54.1,33.0,30.03,NE,41,0.0,0.0,44,0.00,,,0.00,VWS V14.01,2013-05-17 03:24:00,
2013-05-16 23:29:00,53.9,32.8,30.03,NE,41,0.0,0.0,44,0.00,,,0.00,VWS V14.01,2013-05-17 03:29:00,
2013-05-16 23:30:00,53.9,32.8,30.03,NE,41,0.0,0.0,44,0.00,,,0.00,VWS V14.01,2013-05-17 03:30:00,
2013-05-16 23:34:00,53.9,32.8,30.03,NE,41,0.0,0.0,44,0.00,,,0.00,VWS V14.01,2013-05-17 03:34:00,
2013-05-16 23:39:00,53.7,33.3,30.03,NE,41,0.0,0.0,46,0.00,,,0.00,VWS V14.01,2013-05-17 03:39:00,
2013-05-16 23:40:00,53.7,33.3,30.03,NE,41,0.0,0.0,46,0.00,,,0.00,VWS V14.01,2013-05-17 03:40:00,
2013-05-16 23:44:00,53.5,33.1,30.04,ENE,64,0.0,0.0,46,0.00,,,0.00,VWS V14.01,2013-05-17 03:44:00,
2013-05-16 23:49:00,53.3,33.6,30.04,NE,41,0.0,0.0,47,0.00,,,0.00,VWS V14.01,2013-05-17 03:49:00,
2013-05-16 23:50:00,53.2,33.5,30.04,NE,41,0.0,0.0,47,0.00,,,0.00,VWS V14.01,2013-05-17 03:50:00,
2013-05-16 23:54:00,53.0,33.3,30.03,North,356,0.0,0.0,47,0.00,,,0.00,VWS V14.01,2013-05-17 03:54:00,
2013-05-16 23:59:00,52.8,33.1,30.04,NNE,18,0.0,0.0,47,0.00,,,0.00,VWS V14.01,2013-05-17 03:59:00,